RH
66 43 38 49 51 44 40 36 33 36 34 30 23 18 16 20 20 16 23 28 42 48 37 34 23 28 32 19 21 32 34 54 60 67 74 71 64 58 48 47 39 17 37 63
57 50 60 75 66 55 55 48 44 42 36 30 29 18 15 17 17 15 20 28 37 51 37 38 28 25 36 22 17 27 33 46 60 65 67 66 59 50 49 34 10 25 38 41
62 59 63 67 68 62 62 54 54 46 40 34 31 22 19 18 22 16 17 25 28 46 38 38 33 26 32 22 20 27 34 35 39 62 64 65 53 49 38 16 26 35 39 43
55 63 69 78 78 96 71 75 67 53 40 34 33 22 23 22 16 14 19 24 25 35 38 38 36 28 27 33 30 26 32 40 51 58 59 54 48 46 32 27 32 36 39 40
65 73 86 81 100 98 78 98 86 68 53 41 35 26 17 22 14 13 17 23 27 38 42 40 41 30 27 32 36 24 23 34 44 50 52 44 46 48 48 40 32 31 30 26
88 84 89 95 100 98 93 99 100 96 80 58 38 35 18 21 16 21 18 23 29 53 46 38 38 28 28 34 31 24 28 35 36 38 39 44 48 46 48 37 26 23 23 20
95 91 95 100 100 100 100 100 100 100 88 45 39 40 17 17 23 24 20 21 29 54 46 37 42 32 35 37 38 32 22 32 37 38 41 46 42 41 37 25 23 21 19 18
98 99 93 99 100 100 100 100 100 98 78 53 42 28 15 16 60 61 23 20 30 61 44 46 43 33 30 34 43 36 19 30 37 38 42 40 35 28 22 20 20 21 17 24
75 90 99 100 100 99 79 83 63 72 66 60 44 19 14 16 54 65 28 23 30 54 46 45 41 32 29 34 43 30 16 21 30 30 25 24 21 20 21 27 22 19 31 51
69 67 84 80 67 69 57 78 83 69 41 36 26 24 13 17 59 52 51 35 46 48 42 41 35 31 35 47 46 28 18 16 17 19 19 19 23 30 28 22 18 42 62 65
74 78 76 62 76 91 100 92 48 68 67 42 22 16 12 26 74 82 70 66 55 48 40 40 38 40 47 57 46 34 32 32 32 30 32 35 32 25 18 23 54 71 64 66
96 78 99 100 100 100 100 96 100 78 44 63 68 56 31 54 79 85 94 81 53 43 39 41 41 46 59 58 53 50 46 40 38 38 32 26 18 17 36 64 80 76 67 71
100 100 100 100 89 64 46 86 100 92 93 96 100 83 88 80 75 83 70 57 50 51 48 44 49 60 59 55 47 42 41 37 33 29 25 23 25 38 57 80 81 69 74 80
100 100 98 99 96 96 77 86 92 97 97 99 98 99 89 61 82 67 54 50 54 51 50 50 51 50 45 42 40 39 40 41 40 34 25 24 30 51 78 74 64 77 91 97
100 100 96 93 94 98 95 98 96 95 99 99 98 98 96 84 94 74 73 68 62 58 55 52 47 44 44 46 48 51 50 44 38 30 24 30 51 70 65 66 84 98 92 58
98 99 99 96 98 98 99 99 96 96 99 98 92 98 91 93 78 76 75 71 69 68 65 60 55 52 51 50 49 52 45 35 25 22 35 49 66 67 77 96 100 84 72 82
100 100 98 88 89 97 99 99 97 98 98 98 98 98 98 97 91 85 80 79 81 78 74 70 62 58 56 58 56 47 34 21 21 32 57 72 81 97 98 95 90 84 68 73
100 98 97 98 99 91 99 98 94 93 88 80 77 78 75 76 79 80 81 82 82 82 73 64 58 59 60 57 45 25 18 26 45 71 87 97 100 97 94 87 63 65 84 82
87 82 83 95 99 92 99 93 86 90 75 70 78 81 89 90 84 86 80 80 73 67 65 64 62 62 66 53 36 31 43 68 88 96 93 94 95 90 60 61 84 84 81 67
85 86 86 85 88 78 77 83 75 68 68 61 62 66 68 86 81 84 69 62 55 52 56 57 62 80 74 63 50 53 81 90 81 78 90 98 76 56 81 74 72 81 62 46
58 63 65 65 75 74 79 77 76 78 71 68 62 61 54 58 58 51 50 51 54 60 65 75 80 72 58 51 66 90 87 77 88 97 73 52 80 86 60 77 77 57 45 32
51 53 66 84 82 76 78 76 85 77 66 66 64 60 60 61 62 62 63 68 74 76 76 66 51 56 77 86 86 91 96 95 75 48 69 90 68 64 79 74 56 43 31 20
62 76 85 75 70 73 86 87 86 91 91 88 84 84 86 85 83 81 81 77 74 74 79 82 81 80 78 83 90 93 74 52 70 83 75 58 73 76 71 56 42 30 22 21
88 94 95 87 86 90 100 97 91 99 100 100 100 100 100 100 100 100 97 96 95 91 87 83 90 93 89 77 69 70 80 85 76 53 68 73 78 71 57 41 28 23 22 21
91 96 97 95 90 91 92 89 90 96 96 96 100 100 100 98 90 86 85 85 87 89 91 86 72 53 41 42 58 70 61 45 67 71 71 82 72 55 39 27 25 25 23 23
91 89 95 90 78 80 87 92 89 92 93 93 95 95 89 87 96 92 81 62 40 22 17 20 26 39 56 66 58 44 70 75 62 79 82 70 50 36 29 28 29 28 27 26
Wind_Speed
40 47 48 43 45 47 49 49 50 49 50 52 53 51 48 45 42 43 44 39 42 36 33 30 29 31 30 30 30 28 25 28 26 25 25 25 27 29 30 33 35 29 27 25
44 45 43 44 47 49 50 50 48 49 50 52 53 55 55 48 44 45 46 39 42 37 33 31 29 29 31 30 30 28 25 29 30 27 27 27 29 29 32 34 29 27 28 31
43 44 45 47 49 52 51 50 47 49 46 50 52 54 56 50 47 46 48 42 44 39 35 31 28 29 30 28 29 27 26 26 28 30 29 30 30 31 33 28 28 31 33 36
49 48 49 50 52 49 52 46 48 48 49 51 50 56 55 52 51 50 45 43 43 39 34 29 28 29 32 31 30 28 26 27 28 29 30 30 30 31 29 29 31 35 37 39
44 43 46 49 41 42 45 46 48 50 50 53 47 55 51 48 52 52 41 40 41 36 34 30 30 31 30 31 29 28 28 28 30 31 31 30 30 30 31 33 36 38 39 41
43 45 46 44 42 44 46 46 49 51 50 57 49 51 54 40 47 48 44 44 41 35 32 30 31 30 27 29 27 27 27 29 30 32 32 30 31 32 33 36 38 39 41 44
45 42 42 41 42 43 44 46 48 51 56 59 51 51 49 43 35 37 46 41 36 33 30 30 29 31 29 28 28 26 27 29 29 31 31 32 33 34 36 37 38 40 43 44
37 40 37 35 39 37 35 38 46 48 51 52 51 52 43 40 29 37 44 39 37 32 31 28 31 32 30 28 29 27 27 28 29 32 33 34 35 36 36 38 40 41 42 42
24 25 29 32 33 34 34 41 31 43 47 49 48 50 49 44 37 33 39 37 32 28 29 30 31 30 29 28 28 28 27 28 31 32 34 34 35 36 37 40 41 42 41 42
14 18 21 29 32 34 32 30 35 41 43 48 50 54 53 45 37 35 30 26 27 29 29 30 28 28 27 26 25 26 26 27 29 31 32 34 35 37 39 41 41 40 42 45
12 15 23 25 29 30 34 34 37 37 38 43 50 43 42 43 33 31 24 23 24 29 28 27 27 26 24 24 24 23 24 26 27 31 32 35 37 38 40 40 40 42 45 47
11 18 18 15 18 22 21 23 33 40 43 42 34 23 29 38 24 27 22 26 24 27 27 28 26 24 23 23 23 24 26 28 29 31 34 36 37 37 37 39 42 45 47 48
7 4 8 5 8 11 19 22 25 31 46 26 19 29 32 30 26 25 25 26 26 24 26 24 20 19 21 22 24 25 26 28 29 31 33 34 36 37 39 41 45 47 49 52
11 9 9 4 13 14 17 28 35 32 26 6 16 25 25 21 25 23 23 25 24 21 19 19 19 20 21 22 22 23 25 27 29 31 33 35 38 39 41 44 47 49 51 53
10 10 9 12 16 15 8 17 16 20 19 5 18 23 24 25 27 26 24 20 18 18 18 19 19 18 19 20 22 25 26 28 30 33 35 37 38 40 43 46 48 51 50 53
11 19 15 13 11 11 12 8 13 17 13 26 30 33 32 29 27 25 22 20 19 17 15 16 17 18 19 20 22 24 27 29 32 33 35 36 39 42 45 47 47 50 53 57
20 24 24 6 6 8 5 8 13 24 29 28 26 25 24 24 22 21 20 19 18 18 18 18 18 19 19 20 23 26 28 30 32 33 35 38 42 44 44 46 48 52 56 60
14 20 21 18 12 8 11 16 20 17 15 15 17 19 21 21 19 17 16 16 16 17 18 17 17 18 20 22 25 27 28 30 32 34 38 41 44 45 46 47 51 55 60 62
13 12 11 14 13 16 13 14 21 18 14 13 14 19 19 19 19 16 13 15 17 16 15 17 19 20 22 24 25 26 28 30 33 37 40 42 44 44 48 50 55 58 61 57
8 8 7 7 11 12 11 10 9 11 11 10 13 17 15 17 16 15 17 15 15 16 18 20 20 20 22 24 26 27 30 33 35 37 41 43 45 47 52 52 57 59 55 56
3 3 3 4 5 7 8 9 8 11 12 15 16 14 14 17 18 17 15 16 18 18 19 18 18 21 24 25 27 29 32 35 37 40 41 43 48 49 52 57 54 52 55 58
8 8 6 5 5 7 8 11 13 13 14 12 13 15 16 16 16 16 17 17 17 17 16 18 19 21 23 27 30 32 35 37 38 40 43 47 48 51 54 51 51 54 57 60
14 11 8 8 8 8 7 7 9 10 11 12 12 11 12 12 13 13 12 13 14 15 15 17 22 24 26 28 30 34 35 37 40 42 45 47 50 50 49 50 53 56 60 67
13 11 10 8 9 12 6 9 10 7 9 10 10 10 10 10 10 11 13 15 16 18 20 21 23 25 28 30 32 35 36 38 41 42 46 48 47 47 50 52 55 60 66 71
11 11 9 9 12 12 10 11 10 10 9 9 12 13 13 12 11 11 11 12 13 16 19 22 25 28 30 31 32 34 36 38 41 44 45 45 46 48 50 53 58 64 72 78
14 13 14 18 14 12 14 14 16 12 13 13 9 10 10 9 10 10 12 13 15 17 20 23 26 28 29 30 32 34 37 40 42 43 43 43 45 49 52 57 64 72 78 83
Wind_Direction
261 257 254 255 254 251 250 248 248 248 248 246 246 244 245 238 235 237 236 236 235 237 239 237 243 238 245 248 253 258 253 238 241 250 256 263 271 277 285 290 295 293 290 291
266 262 259 255 252 252 250 249 249 248 246 246 243 241 240 240 233 233 234 234 232 233 236 237 239 239 241 248 252 259 256 244 245 254 260 267 274 280 286 290 289 287 288 293
267 262 257 255 254 253 252 253 248 247 242 245 244 240 241 236 235 233 234 231 232 228 233 234 234 241 239 245 249 257 257 257 253 255 262 268 276 283 289 289 289 289 290 291
266 264 261 257 256 253 254 251 245 241 239 239 241 240 237 236 231 229 233 234 236 228 232 236 236 238 239 241 249 255 256 256 255 256 261 268 274 283 290 289 291 291 291 293
267 260 257 255 251 246 246 240 239 239 239 238 235 241 227 234 231 229 228 229 238 228 229 230 233 236 238 239 249 253 255 257 256 258 262 267 275 284 290 292 291 291 292 293
262 258 253 252 245 244 242 239 236 236 237 238 230 240 226 223 227 229 224 225 232 229 230 232 236 238 237 236 245 250 254 256 257 259 261 267 275 283 287 288 289 292 294 294
268 257 251 249 247 245 245 240 239 238 236 236 231 234 228 217 225 227 223 225 228 228 227 231 235 236 236 238 245 251 253 256 256 258 262 269 276 281 284 286 288 291 291 292
255 254 253 255 257 254 246 243 241 240 240 238 236 237 225 219 227 221 219 222 217 219 222 230 231 233 237 241 246 253 255 257 259 262 266 272 277 280 284 285 288 290 291 293
258 247 244 251 251 249 248 244 249 240 239 242 239 237 237 225 218 219 215 221 218 214 222 229 231 231 236 240 244 252 255 258 261 265 270 274 278 282 285 288 291 291 293 294
259 257 239 235 229 228 233 227 228 233 228 228 229 237 228 217 217 228 224 215 212 214 223 228 227 227 232 236 245 252 256 260 264 270 273 277 280 283 287 290 291 292 293 293
274 251 223 235 226 223 228 222 218 234 231 221 221 223 209 198 231 207 190 197 208 211 218 219 218 221 227 235 243 251 257 263 268 271 275 279 282 286 288 289 291 293 294 295
258 230 227 231 247 233 214 227 226 234 206 201 208 183 192 198 197 191 198 200 203 204 210 214 215 218 224 234 246 255 262 266 269 275 278 281 284 285 288 291 293 295 297 297
308 14 139 209 242 214 226 199 203 203 189 183 171 183 177 184 176 183 196 194 197 200 206 211 214 224 234 244 253 259 265 269 274 277 281 285 286 289 292 293 294 296 296 296
315 101 123 154 188 172 174 178 183 178 175 126 157 161 179 187 189 189 191 190 190 195 202 211 221 232 241 248 255 262 266 272 278 283 285 286 289 292 292 293 295 296 297 297
86 96 181 199 195 205 205 204 214 213 234 252 150 171 182 189 189 189 189 187 186 195 205 214 223 232 242 252 261 268 274 278 280 282 285 287 290 291 293 295 296 297 299 301
55 48 67 209 234 202 194 282 214 186 159 149 173 185 177 185 184 182 181 183 186 194 207 221 234 243 253 261 267 269 272 275 280 284 287 290 291 293 295 297 297 301 301 303
63 63 74 90 241 311 10 135 126 132 125 124 131 144 156 172 177 180 186 195 202 210 221 233 246 254 262 265 267 271 275 280 283 288 289 290 292 295 296 297 299 301 303 303
89 104 110 121 137 146 74 106 155 153 147 160 159 172 185 192 193 197 199 199 207 220 232 246 254 259 265 269 271 275 279 283 286 287 290 293 294 294 296 299 301 302 303 306
121 120 114 126 133 142 137 127 131 159 163 161 179 192 190 193 192 193 200 214 223 232 243 253 261 264 266 270 274 279 283 286 289 291 293 295 296 297 299 300 302 305 306 307
107 102 110 135 131 133 154 159 178 195 200 214 218 199 201 199 203 216 224 234 247 251 253 258 264 267 271 275 278 281 284 286 287 289 290 293 296 298 300 303 303 305 306 307
198 214 164 135 144 169 181 188 208 222 221 224 228 230 229 226 229 239 251 256 257 257 258 264 269 271 272 275 278 279 282 285 288 291 292 295 298 301 302 302 304 306 307 309
222 238 253 203 217 217 208 201 202 216 226 227 225 224 226 228 232 239 247 252 255 259 263 266 270 274 275 277 279 281 284 289 290 293 295 298 300 300 302 304 306 307 310 312
214 203 221 209 233 218 207 201 209 217 227 225 224 220 220 224 232 239 245 250 255 260 264 271 278 279 280 283 285 287 289 291 294 296 298 299 300 302 305 306 309 311 313 316
192 198 201 205 207 182 177 203 198 217 222 222 224 226 232 233 244 253 260 264 268 271 273 276 280 283 285 286 288 289 291 294 296 297 298 301 303 306 307 310 312 313 318 321
199 193 201 218 211 212 230 229 215 213 207 219 231 235 240 246 250 252 255 260 266 271 277 281 283 286 287 289 290 293 294 294 296 300 302 304 306 309 312 313 315 319 321 322
222 228 233 239 223 234 230 225 217 229 236 238 230 230 236 240 249 255 262 270 277 281 285 286 286 287 288 289 291 293 296 298 300 302 305 307 310 312 313 317 319 320 321 321